www.pogodaiklimat.ru

Погода и климат >> Архив погоды >> Барбадос >> Грантли Адамс


ПОГОДА в Грантли Адамсе

  • Прогноз погоды в Грантли Адамсе
  • Монитор погоды в Грантли Адамсе

АРХИВ ПОГОДЫ в Грантли Адамсе

Время (UTC), дата Ветер
(напр.,м/с)
 
Видим.   Явления Облачность Т
(С)
Тd
(С)
f
(%)
Тe
(С)
Тes
(С)
Комфортность P
(гПа)
Po
(гПа)
Тmin
(С)
Tmax
(С)
R
(мм)
R24
(мм)
S
(см)
09 17.06 В 5 12 км пыль ясно +26.9 +22.4 76 +35 +35 очень
душно
1015.0 1007.3
12 17.06 В 6 12 км пыль ясно +28.9 +22.5 68 +38 +41 очень
душно
1016.3 1008.6 +27.1 +30.2
15 17.06 В 4 8000 м пыль ясно +28.9 +23.2 71 +39 +52 опасность
солнечного
удара
1017.3 1009.6
21 17.06 В 5 10 км пыль ясно +28.0 +23.1 75 +38 +39 очень
душно
1015.1 1007.4
00 18.06 В 5 10 км пыль ясно +27.5 +23.4 78 +37 +37 очень
душно
1016.1 1008.4 +29.9
03 18.06 В 5 10 км пыль ясно +27.1 +22.9 78 +36 +36 очень
душно
1016.5 1008.8
06 18.06 В 6 10 км осадки на расстоянии ясно +27.2 +23.7 81 +37 +37 очень
душно
1015.2 1007.5 +27.1 +29.9
09 18.06 В 5 10 км пыль ясно +27.0 +22.7 77 +36 +36 очень
душно
1014.6 1007.0
12 18.06 В 5 12 км пыль ясно +28.4 +23.7 76 +39 +42 очень
душно
1016.1 1008.4 +27.1 +29.9
15 18.06 В 5 16 км пыль ясно +30.5 +23.2 65 +41 +51 опасность
перегрева
1016.6 1008.9
21 18.06 В 5 16 км пыль ясно +28.6 +23.1 72 +38 +39 очень
душно
1014.3 1006.6
00 19.06 В 6 16 км пыль ясно +27.5 +23.2 77 +37 +37 очень
душно
1015.6 1007.9 +32.1
03 19.06 В 5 16 км пыль ясно +27.1 +23.0 78 +36 +36 очень
душно
1016.8 1009.1
06 19.06 В 5 16 км пыль ясно +26.9 +21.9 74 +35 +35 очень
душно
1015.3 1007.6 +26.9 +32.1
09 19.06 В 6 16 км пыль ясно +26.7 +22.5 78 +35 +35 очень
душно
1015.2 1007.5
12 19.06 В 5 10 км пыль {ливн. осадки} ясно +27.2 +23.7 81 +37 +40 очень
душно
1016.0 1008.3 +26.0 +32.1 2
15 19.06 В 5 9000 м осадки на расстоянии {ливн. осадки} 10/9 420 м
[Cu Sc]
+27.9 +24.4 81 +39 +40 очень
душно
1016.6 1008.9
18 19.06 В 7 9000 м осадки на расстоянии {ливн. осадки} 10/5 360 м
[Cu Sc Ac As]
+26.5 +24.2 87 +37 +38 очень
душно
1015.3 1007.6 +26.0 +29.1 1
21 19.06 В 5 8000 м слаб. ливневой дождь ясно +26.5 +24.2 87 +37 +38 очень
душно
1015.1 1007.4
00 20.06 В 5 8000 м пыль {ливн. осадки} 10/6 360 м
[Cu Sc Ac As]
+26.9 +24.2 85 +37 +37 очень
душно
1016.3 1008.6 +29.1 4
06 20.06 В 5 8000 м пыль {ливн. осадки} ясно +26.7 +23.9 85 +37 +37 очень
душно
1016.1 1008.4 +25.6 +29.1
09 20.06 В 5 8000 м пыль {ливн. осадки, дождь} ясно +26.4 +22.7 80 +35 +35 очень
душно
1016.7 1009.0
12 20.06 В 6 10 км в посл. час ливневой дождь ясно +27.7 +23.7 79 +38 +41 очень
душно
1018.4 1010.6 +26.1 +29.1
15 20.06 В 5 10 км пыль ясно +30.1 +22.6 64 +39 +51 опасность
солнечного
удара
1019.1 1011.3
18 20.06 В 2 10 км пыль ясно +30.1 +23.5 68 +41 +59 опасность
перегрева
1017.6 1009.9 +25.6 +30.7
21 20.06 В 4 10 км пыль 10/3 660 м
[Cu med, cong Ac trans Cs]
+28.0 +22.7 73 +37 +38 очень
душно
1016.7 1009.0
00 21.06 В 5 9000 м пыль {ливн. осадки} ясно +27.4 +22.9 76 +36 +36 очень
душно
1017.6 1009.9 +31.1
09 21.06 В 5 12 км пыль ясно +26.5 +22.5 79 +35 +35 очень
душно
1017.3 1009.6
12 21.06 В 5 12 км пыль ясно +28.7 +23.0 71 +38 +42 очень
душно
1018.2 1010.5 +26.7 +31.1
15 21.06 В 5 12 км пыль ясно +30.2 +22.6 64 +40 +52 опасность
солнечного
удара
1018.4 1010.7
21 21.06 В 5 14 км пыль ясно +28.2 +22.4 71 +37 +38 очень
душно
1016.3 1008.6
00 22.06 В 5 14 км пыль ясно +27.4 +22.9 76 +36 +36 очень
душно
1017.3 1009.6 +31.0
03 22.06 В 5 14 км пыль ясно +26.7 +22.2 76 +35 +35 очень
душно
1018.2 1010.5
06 22.06 В 4 14 км пыль ясно +26.5 +22.7 80 +35 +35 очень
душно
1017.3 1009.6 +26.7 +31.0
09 22.06 В 4 14 км пыль {ливн. осадки, дождь} ясно +25.9 +22.2 80 +34 +34 очень
душно
1016.6 1008.9
12 22.06 В 4 22 км {ливн. осадки, дождь} ясно +27.9 +23.2 76 +38 +42 очень
душно
1018.0 1010.3 +25.0 +31.0 1
18 22.06 В 3 25 км {ливн. осадки} ясно +29.2 +24.0 74 +41 +54 опасность
перегрева
1016.4 1008.7 +25.0 +30.7
21 22.06 В 4 25 км ясно +28.1 +23.1 74 +38 +39 очень
душно
1015.0 1007.3
03 23.06 В 3 25 км ясно +26.9 +23.5 82 +37 +37 очень
душно
1017.8 1010.1
06 23.06 В 2 8000 м слаб. ливневой дождь {гроза} 10/10 360 м
[Cb cap]
+25.6 +24.2 92 +35 +35 очень
душно
1016.3 1008.6 +24.9 +30.7 4
09 23.06 В 3 10 км осадки на расстоянии {гроза, ливн. осадки} ясно +25.2 +23.9 93 +35 +35 очень
душно
1016.6 1008.8
12 23.06 В 3 4000 м слаб. дождь {гроза} ясно +25.7 +24.7 94 +36 +42 очень
душно
1017.4 1009.7 +24.9 +30.7 5
18 23.06 ЮВ 1 28 км {дождь} 10/4 360 м
[Cb cap Ac As Cs]
+27.7 +25.0 85 +40 +46 очень
душно
1016.1 1008.4 +24.9 +28.1
21 23.06 ЮВ 2 28 км ясно +29.7 +24.7 75 +42 +45 опасность
перегрева
1014.9 1007.2
03 24.06 В 2 28 км {ливн. осадки} ясно +26.0 +24.0 89 +36 +36 очень
душно
1016.3 1008.6

 

Местоположение метеостанции Грантли Адамс (Барбадос): широта 13.07 долгота -59.48 высота над уровнем моря 56 м.

В архиве по умолчанию представлена погода в Грантли Адамсе за последнюю неделю. Архивные данные за месяц целиком и за предыдущие месяцы, начиная с января 2011 года, Вы можете получить, выбрав интересующий диапазон дат из раскрывающегося списка и нажав кнопку "Ввод!".


*Определитесь, кто Вы:
робот инопланетянин человек

Внимание! Время в таблицах - всемирное. Для получения местного времени необходимо прибавить поправку, которая равна -4 ч.

Смотрите также архив погоды в соседних городах и на ближайших метеорологических станциях:

Погода в Аэропорту Хеванорра (Сент-Люсия) (175 км)
Погода в Арнос Вейл (Сент-Винсент и Гренадины) (186 км)
Погода в Виги (Сент-Люсия) (195 км)
Погода в Аэропорту Мартиники (Мартиника) (236 км)
Погода на Каравелле (Мартиника) (242 км)
Погода в Краун-Пойнте (Тринидад и Тобаго) (259 км)
Погода в Аэропорту Морис Бишоп (Гренада) (277 км)
Погода в Дуглас-Шарль аэропорту (Доминика) (337 км)
Погода в Аэропорту Пиарко (Тринидад и Тобаго) (339 км)
Погода в Канфилд аэропорту (Доминика) (343 км)

Пояснения к столбцам:

Ветер - указаны скорость ветра в м/с - средняя за 10 мин, порывы в срок и между сроками (в фигурных скобках) и направление, откуда дует ветер: С - северный, СВ - северо-восточный, В - восточный, ЮВ - юго-восточный, Ю - южный, ЮЗ - юго-западный, З - западный, СЗ - северо-западный.
Видимость - горизонтальная дальность видимости в метрах или километрах. При видимости от 1 до 10 км при отсутствии осадков обычно наблюдается дымка, при ухудшении видимости до 1 км и менее - туман. В сухую погоду видимость может ухудшаться дымом, пылью или мглою.
Явления - указаны атмосферные явления, наблюдавшиеся в срок или в последний час перед сроком; фигурными скобками обозначены явления, наблюдавшиеся между сроками (за 1-3 часа до срока); квадратными скобками обозначены град или гололедные отложения с указанием их диаметра в мм.
Облачность - указаны через наклонную черту общая и нижняя облачность в баллах и высота нижней границы облаков в метрах; квадратными скобками обозначены формы облаков: Ci - перистые, Cs - перисто-слоистые, Cc - перисто-кучевые, Ac - высококучевые, As - высокослоистые, Sc - слоисто-кучевые, Ns - слоисто-дождевые, Cu - кучевые, Cb - кучево-дождевые. Подробнее классификацию облаков см. в Атласе облаков (PDF).
T - Температура воздуха - температура, измеренная на высоте 2 м над землей.
Td - Температура точки росы - температура, при понижении до которой содержащийся в воздухе водяной пар достигнет насыщения.
f - Относительная влажность воздуха - влажноcть воздуха, измеренная на высоте 2 м над землей.
Te - Эффективная температура - температура, которую ощущает одетый по сезону человек в тени. Характеристика душности погоды. При расчете учитывается влияние влажности воздуха и скорости ветра на теплоощущения человека.
Tes - Эффективная температура на солнце - температура, которую ощущает человек, с поправкой на солнечный нагрев. Характеристика знойности погоды. Зависит от высоты солнца над горизонтом, облачности и скорости ветра. Ночью, в пасмурную погоду, а также при ветре 12 м/с и более поправка равна нулю.
P - Атмосферное давление - приведенное к уровню моря атмосферное давление.
Po - Атмосферное давление - измеренное на уровне метеостанции атмосферное давление.
Tmin - Минимальная температура - минимум температуры воздуха на высоте 2 м над землей.
Tmax - Максимальная температура - максимум температуры воздуха на высоте 2 м над землей.
R - Количество осадков - Количество выпавших осадков за период времени, мм. При наведении курсора мыши на число - период времени, за который выпало указанное количество осадков.
R24 - Количество осадков - Количество выпавших осадков за 24 часа, мм.
S - Снежный покров - Высота снежного покрова, см. При наведении курсора мыши на число - состояние снежного покрова и степень покрытия местности в баллах.